Regional Weather Roundup
Issued by NWS

Home | Current Version | Previous Version | Graphics & Text | Print | Product List | Glossary On
Versions: 1 2 3 4 5 6 7 8 9 10 11 12 13 14 15 16 17 18 19 20 21 22 23 24 25 26 27
000
ASUS45 KBOI 300310
RWRID

IDAHO REGIONAL WEATHER ROUNDUP
NATIONAL WEATHER SERVICE BOISE ID
900 PM MDT MON MAY 29 2017

NOTE: "FAIR" INDICATES FEW OR NO CLOUDS BELOW 12000 FEET
WITH NO SIGNIFICANT WEATHER AND/OR OBSTRUCTIONS TO VISIBILITY

IDZ012-014-300400-
SOUTHWEST IDAHO


CITY           SKY/WX    TMP DP  RH WIND       PRES   REMARKS
BOISE          CLEAR     84  37  18 N3        29.94S
CALDWELL       CLEAR     80  45  28 NW7       29.93S
MOUNTAIN HOME  CLEAR     80  38  22 E9        29.95S
$$

IDZ016-017-300400-
SOUTHCENTRAL IDAHO


CITY           SKY/WX    TMP DP  RH WIND       PRES   REMARKS
BURLEY         CLEAR     71  38  29 E5        30.03S
JEROME         CLEAR     69  42  37 NE9       30.04S
TWIN FALLS     CLEAR     67  46  47 E6        30.04R
$$

IDZ019>023-300400-
SOUTHEAST IDAHO


CITY           SKY/WX    TMP DP  RH WIND       PRES   REMARKS
IDAHO FALLS    CLEAR     66  50  56 CALM      30.11R
POCATELLO      CLEAR     69  41  36 CALM      30.09R
REXBURG        CLEAR     69  41  36 CALM      30.11S
$$

IDZ006-010-011-018-031-032-300400-
CENTRAL IDAHO MOUNTAINS


CITY           SKY/WX    TMP DP  RH WIND       PRES   REMARKS
MCCALL         CLEAR     71  31  22 CALM      30.08S
HAILEY         PTCLDY    63  43  48 N3        30.14S
STANLEY          N/A     59  40  49 S5        30.19R
SALMON         CLOUDY    68  46  45 S3        30.01R
CHALLIS        PTCLDY    67  37  33 SE6       30.09R
$$

IDZ002-004-006-007-026-300400-
NORTHERN IDAHO


CITY           SKY/WX    TMP DP  RH WIND       PRES   REMARKS
LEWISTON       CLEAR     84  48  28 W5        29.88S
LOWELL           N/A     66  52  60 CALM      29.90R
COEUR D`ALENE  CLEAR     79  53  40 CALM      29.94F
MULLAN PASS    PTCLDY    63  35  35 NW3       30.16S
$$




USA.gov is the U.S. government's official web portal to all federal, state and local government web resources and services.